Page, AZ

5:30 PM MST on November 18, 2017 (GMT -0700)
Page Municipal

Weather History for KPGA - September, 2012

Change the Weather History Date:

Saturday, September 22, 2012

  Actual Average Record
Temperature  
Mean Temperature 76 °F -  
Max Temperature 91 °F 79 °F 91 °F (1958)
Min Temperature 61 °F 54 °F 42 °F (1978)
Cooling Degree Days 11    
Growing Degree Days 26 (Base 50)    
Moisture  
Dew Point 28 °F    
Average Humidity 15    
Maximum Humidity 25    
Minimum Humidity 5    
Precipitation  
Precipitation 0.00 in - - ()
Sea Level Pressure  
Sea Level Pressure 29.94 in    
Wind  
Wind Speed 3 mph (SSW)    
Max Wind Speed 8 mph    
Max Gust Speed -    
Visibility 10 miles    
Events      
Averages and records for this station are not official NWS values.
T = Trace of Precipitation, MM = Missing Value Source: NWS Daily Summary

Daily Weather History Graph

Daily Weather History Graph

Search for Another Location

Airport or City:

Trip Planner

Search our weather history database for the weather conditions in past years. The results will help you decide how hot, cold, wet, or windy it might be!

Date:

Astronomy

Sep. 22, 2012 Rise Set
Actual Time 6:14 AM MST 6:21 PM MST
Civil Twilight 5:48 AM MST 6:47 PM MST
Nautical Twilight 5:17 AM MST 7:17 PM MST
Astronomical Twilight 4:47 AM MST 7:48 PM MST
Moon 1:26 PM MST (9/22) 11:39 PM MST (9/22)
Length of Visible Light 12h 59m
Length of Day
12h 07m
Waxing Crescent, 50% of the Moon is Illuminated
Sep 22
Waxing Crescent
Sep 22
First Quarter
Sep 29
Full
Oct 8
Last Quarter
Oct 15
New

Hourly Weather History & Observations

Time (MST) Temp. Dew Point Humidity Pressure Visibility Wind Dir Wind Speed Gust Speed Precip Events Conditions
12:53 AM 66.9 °F 25.0 °F 21% 29.91 in 10.0 mi Calm Calm - N/A   Clear
1:53 AM 70.0 °F 23.0 °F 17% 29.91 in 10.0 mi WSW 4.6 mph - N/A   Clear
2:53 AM 69.1 °F 24.1 °F 18% 29.92 in 10.0 mi West 4.6 mph - N/A   Clear
3:53 AM 66.0 °F 25.0 °F 21% 29.94 in 10.0 mi WSW 3.5 mph - N/A   Clear
4:53 AM 64.0 °F 27.0 °F 25% 29.96 in 10.0 mi Calm Calm - N/A   Clear
5:53 AM 63.0 °F 26.1 °F 25% 29.98 in 10.0 mi West 3.5 mph - N/A   Clear
6:53 AM 64.9 °F 28.0 °F 25% 30.00 in 10.0 mi Calm Calm - N/A   Clear
7:53 AM 69.1 °F 25.0 °F 19% 30.01 in 10.0 mi Calm Calm - N/A   Clear
8:53 AM 70.0 °F 27.0 °F 20% 30.03 in 10.0 mi Calm Calm - N/A   Clear
9:53 AM 73.9 °F 26.1 °F 17% 30.03 in 10.0 mi Calm Calm - N/A   Clear
10:53 AM 80.1 °F 25.0 °F 13% 30.00 in 10.0 mi NE 6.9 mph - N/A   Clear
11:53 AM 81.0 °F 26.1 °F 13% 29.99 in 10.0 mi North 5.8 mph - N/A   Clear
12:53 PM 84.0 °F 26.1 °F 12% 29.96 in 10.0 mi Calm Calm - N/A   Clear
1:53 PM 89.1 °F 26.1 °F 10% 29.92 in 10.0 mi Calm Calm - N/A   Clear
2:53 PM 91.0 °F 27.0 °F 10% 29.89 in 10.0 mi ENE 6.9 mph - N/A   Clear
3:53 PM 90.0 °F 26.1 °F 10% 29.89 in 10.0 mi ESE 3.5 mph - N/A   Clear
4:53 PM 90.0 °F 28.9 °F 11% 29.88 in 10.0 mi SW 6.9 mph - N/A   Clear
5:53 PM 88.0 °F 28.9 °F 12% 29.88 in 10.0 mi South 8.1 mph - N/A   Clear
6:53 PM 84.9 °F 28.0 °F 13% 29.90 in 10.0 mi South 6.9 mph - N/A   Clear
7:53 PM 82.9 °F 30.9 °F 15% 29.91 in 10.0 mi SSW 6.9 mph - N/A   Clear
8:53 PM 82.9 °F 33.1 °F 17% 29.92 in 10.0 mi SSW 6.9 mph - N/A   Clear
9:53 PM 84.9 °F 32.0 °F 15% 29.91 in 10.0 mi Calm Calm - N/A   Partly Cloudy
10:53 PM 79.0 °F 33.1 °F 19% 29.91 in 10.0 mi SSW 6.9 mph - N/A   Clear
11:53 PM 77.0 °F 34.0 °F 21% 29.91 in 10.0 mi SSW 6.9 mph - N/A   Clear